Regional Weather Roundup
Issued by NWS

Home | Current Version | Previous Version | Graphics & Text | Print | Product List | Glossary On
Versions: 1 2 3 4 5 6 7 8 9 10 11 12 13 14 15 16 17 18 19 20 21 22 23 24 25 26 27 28 29 30 31 32 33 34 35 36 37 38 39 40 41 42 43 44 45 46 47 48 49 50
000
ASUS45 KBOU 272207
RWRCO

WEATHER ROUNDUP FOR COLORADO
NATIONAL WEATHER SERVICE DENVER/BOULDER CO
400 PM MDT WED MAY 27 2015

NOTE: "FAIR" INDICATES FEW OR NO CLOUDS BELOW 12000 FEET WITH NO
SIGNIFICANT WEATHER AND/OR OBSTRUCTIONS TO VISIBILITY.

COZ001>005-013-030-031-272300-
...NORTHWEST COLORADO...

CITY           SKY/WX    TMP DP  RH WIND       PRES   REMARKS
CRAIG          PTSUNNY   63  43  48 NW9       30.12S
HAYDEN         PTSUNNY   61  37  41 SW5       30.14S
MEEKER         PTSUNNY   60  45  57 VRB3      30.13F
MOUNT WERNER   NOT AVBL
STEAMBOAT SPGS CLOUDY    50  43  77 W9G17     30.18R
WALDEN         PTSUNNY   57  32  38 SW15      30.18F
$$

COZ006>008-011-272300-
...WEST CENTRAL VALLEYS...

CITY           SKY/WX    TMP DP  RH WIND       PRES   REMARKS
GRAND JUNCTION PTSUNNY   73  43  33 VRB5      30.02F
MONTROSE       CLOUDY    72  41  32 NW21G26   30.09R
EAGLE          LGT RAIN  63  39  42 S20G28    30.17F
RIFLE          MOSUNNY   71  44  37 SE20      30.06S
DELTA          PTSUNNY   76  37  24 W17G26    30.05S
NUCLA          PTSUNNY   70  34  26 W17G26    30.14F
$$

COZ017>023-064>068-272300-
...SOUTHWEST COLORADO...

CITY           SKY/WX    TMP DP  RH WIND       PRES   REMARKS
DURANGO        PTSUNNY   72  29  20 SW17G23   30.14F
CORTEZ         SUNNY     76  37  24 SW10G20   30.10F
PAGOSA SPRINGS PTSUNNY   69  26  19 W9G23     30.19F
TELLURIDE      CLOUDY    57  32  38 SE3       30.28F
WOLF CREEK PAS NOT AVBL
$$

COZ009-010-012-014-032>034-037-058>063-272300-
...CENTRAL COLORADO...

CITY           SKY/WX    TMP DP  RH WIND       PRES   REMARKS
ASPEN          PTSUNNY   59  39  47 NW17      30.19R
BUENA VISTA    PTSUNNY   58  36  43 SE17      30.19F
COPPER MTN     PTSUNNY   45  30  57 W12G17    30.41F
BERTHOUD PASS  PTSUNNY   34  28  80 MISG      30.44S
COTTONWOOD PAS PTSUNNY   59  27  29 N6        30.29F
GUNNISON       CLOUDY    61  32  33 S6        30.20S
KREMMLING      PTSUNNY   66  32  28 SW17      30.16F
LEADVILLE      PTSUNNY   57  25  29 W10       30.27F
SALIDA         PTSUNNY   62  42  48 SE7       30.25F
SUNLIGHT       CLOUDY    41  36  81 S3        30.36F
WILKERSON PASS PTSUNNY   50  27  40 SW8       30.39F
$$

COZ069>075-272300-
...SAN LUIS VALLEY/SANGRE DE CRISTO MOUNTAINS...

CITY           SKY/WX    TMP DP  RH WIND       PRES   REMARKS
ALAMOSA        MOSUNNY   70  28  21 SW12G20   30.15F
LA VETA PASS   PTSUNNY  N/A N/A N/A MISG      30.31F
SAGUACHE       CLOUDY    54  43  66 N20G28    30.22R
$$

COZ035-036-038>040-272300-
...NORTHERN COLORADO FRONT RANGE...

CITY           SKY/WX    TMP DP  RH WIND       PRES   REMARKS
DENVER INTL AP PTSUNNY   75  38  26 VRB3      30.02F
DMNS CITY PARK   N/A     76  39  27 E14       29.99F
AURORA         PTSUNNY   73  40  30 NE8       30.03F
FRONT RANGE AP PTSUNNY   75  41  29 CALM      30.04F
ERIE MUNI ARPT   N/A     75  39  27 CALM      30.00S
BOULDER MUN AP MOSUNNY   75  41  29 NW3       30.00F
CENTENNIAL     PTSUNNY   74  40  29 NE8       30.03F
BROOMFIELD     MOSUNNY   73  39  29 VRB5      30.03F
FORT COLLINS   MOSUNNY   75  45  33 NE7       29.98F
LONGMONT       CLOUDY    75  42  31 S3        30.01S
$$

COZ041-046-047-076>085-087-088-272300-
...PIKES PEAK/PALMER DIVIDE AND SOUTHERN FOOTHILLS...

CITY           SKY/WX    TMP DP  RH WIND       PRES   REMARKS
COLO. SPRINGS  PTSUNNY   72  39  30 S16G24    30.07F
A. F. ACADEMY  PTSUNNY   71  38  30 SE18      30.06F
ELLICOTT       NOT AVBL
FALCON         PTSUNNY   71  35  26 SW18G26   30.11F
FORT CARSON    PTSUNNY   70  43  37 VRB2      30.05F
LIMON          LGT RAIN  56  49  77 E9        30.11R
MONUMENT HILL  MOSUNNY   64  41  42 MISG      30.13F
TRINIDAD       HVY RAIN  57  46  66 S20       30.10S
$$

COZ042>045-048>051-090-091-272300-
...NORTHEAST COLORADO...

CITY           SKY/WX    TMP DP  RH WIND       PRES   REMARKS
GREELEY ARPT   MOSUNNY   75  43  31 E5        29.99F
AKRON          MOSUNNY   75  48  38 S16       30.00F
BURLINGTON     MOSUNNY   80  47  31 S16G28    30.00S
WRAY             N/A     76  51  41 S13       29.96S
STERLING       MOSUNNY   77  52  41 N16       29.95F
HOLYOKE        CLOUDY    72  61  68 SE16      29.97F
FORT MORGAN    MOSUNNY   76  41  27 W6        29.99F
$$

COZ086-089-092>099-272300-
...SOUTHEAST COLORADO...

CITY           SKY/WX    TMP DP  RH WIND       PRES   REMARKS
PUEBLO         PTSUNNY   78  49  35 E9        29.97F
LA JUNTA       MOSUNNY   82  46  28 SE9       29.96F
LAMAR          PTSUNNY   82  48  30 S24G30    29.95F
SPRINGFIELD      N/A     66  48  52 NW25G33   30.02R
$$


USA.gov is the U.S. government's official web portal to all federal, state and local government web resources and services.